Rickmers Dalian — V7FS3 — position and weather

sailwx.info

Track history (hours):
 
Tides and Currents Weather Stations Pressure Air Temp Water Temp Dewpoint Dewpoint Depression Visibility Wind Speed Wind Dir Waves Ship Positions

Rickmers Dalian

Last reported at 2015-May-09 18:21 UTC. Time now 2015-May-22 23:40 UTC.
Position N 31°22' E 032°21'.
Warning: this ship's position is 13 days out of date.

Length 193 m; beam 27.8 m; draft 11.2 m.

Type: Ship. MMSI: 538090156.

Date/timePositionNaut miles runAvg speedWind from/ knotsBaromVisibWave heightAir tempDewpointWater temp
2015-May-09 18:21N 31°22' E 032°21'76915.7
2015-May-07 17:27N 36°51' E 018°22'1617.3
2015-May-07 16:33N 36°58' E 018°04'3617.1
2015-May-07 14:27N 37°13' E 017°23'1516.9
2015-May-07 13:33N 37°20' E 017°06'1716.8
2015-May-07 12:33N 37°27' E 016°47'1716.8
2015-May-07 11:33N 37°34' E 016°28'5216.2
2015-May-07 08:21N 38°03' E 015°33'3813.3
2015-May-07 05:32N 38°38' E 015°16'9017.0
2015-May-07 00:12N 39°39' E 013°51'1116.8
2015-May-06 23:33N 39°47' E 013°40'1716.6
2015-May-06 22:33N 39°58' E 013°25'4116.9
2015-May-06 20:10N 40°25' E 012°45'1116.9
2015-May-06 19:31N 40°33' E 012°35'1617.0
2015-May-06 18:33N 40°44' E 012°19'1716.8
2015-May-06 17:33N 40°55' E 012°03'1717.2
2015-May-06 16:33N 41°07' E 011°46'8416.7
2015-May-06 11:33N 42°03' E 010°23'1716.6
2015-May-06 10:33N 42°14' E 010°07'1616.1
2015-May-06 09:33N 42°28' E 009°55'1716.6
2015-May-06 08:31N 42°44' E 009°47'1816.7
2015-May-06 07:28N 43°01' E 009°39'1615.7
2015-May-06 06:27N 43°15' E 009°31'1415.9
2015-May-06 05:33N 43°29' E 009°24'1615.6
2015-May-06 04:33N 43°43' E 009°17'1515.0
2015-May-06 03:33N 43°58' E 009°10'1515.4
2015-May-06 02:33N 44°12' E 009°02'1313.1
2015-May-06 01:33N 44°24' E 008°55'1 1.2
2015-May-06 00:31N 44°24' E 008°53'0 0.0
2015-May-05 23:31N 44°24' E 008°53'0 0.0
2015-May-05 22:28N 44°24' E 008°53'0 0.0
2015-May-05 21:28N 44°24' E 008°53'0 0.0
2015-May-05 20:28N 44°24' E 008°53'0 0.0
2015-May-05 19:31N 44°24' E 008°53'0 0.0
2015-May-05 18:31N 44°24' E 008°53'0 0.0
2015-May-05 17:31N 44°24' E 008°53'0 0.0
2015-May-05 16:28N 44°24' E 008°53'0 0.0
2015-May-05 15:22N 44°24' E 008°53'0 0.0
2015-May-05 14:28N 44°24' E 008°53'0 0.0
2015-May-05 13:28N 44°24' E 008°53'0 0.0
2015-May-05 12:31N 44°24' E 008°53'0 0.0
2015-May-05 11:31N 44°24' E 008°53'0 0.0
2015-May-05 10:22N 44°24' E 008°53'0 0.3
2015-May-05 09:33N 44°24' E 008°53'6 5.6
2015-May-05 08:33N 44°19' E 008°57'1515.5
2015-May-05 07:33N 44°08' E 008°42'1515.3
2015-May-05 06:33N 43°57' E 008°27'1614.9
2015-May-05 05:30N 43°46' E 008°12'3015.5
2015-May-05 03:32N 43°25' E 007°42'8014.7
2015-May-04 22:04N 42°32' E 006°19'714.3
2015-May-04 21:33N 42°27' E 006°12'1515.0
2015-May-04 20:33N 42°17' E 005°57'1515.3
2015-May-04 19:34N 42°07' E 005°41'1515.2
2015-May-04 18:33N 41°57' E 005°26'1715.0
2015-May-04 17:27N 41°46' E 005°09'3015.7
2015-May-04 15:32N 41°26' E 004°39'5416.4
2015-May-04 12:15N 40°51' E 003°45'1115.8
2015-May-04 11:32N 40°43' E 003°34'1515.6
2015-May-04 10:33N 40°33' E 003°19'1615.6
2015-May-04 09:33N 40°23' E 003°03'1616.3
2015-May-04 08:33N 40°12' E 002°47'1616.6
2015-May-04 07:33N 40°01' E 002°31'1716.5
2015-May-04 06:33N 39°51' E 002°15'1616.3
2015-May-04 05:33N 39°40' E 001°59'1716.7
2015-May-04 04:33N 39°29' E 001°42'1616.2
2015-May-04 03:33N 39°18' E 001°27'1616.3
2015-May-04 02:33N 39°07' E 001°11'3416.4
2015-May-04 00:27N 38°42' E 000°41'3116.5
2015-May-03 22:33N 38°17' E 000°16'1616.1
2015-May-03 21:33N 38°05' E 000°03'1616.1
2015-May-03 20:33N 37°53' W 000°10'1616.3
2015-May-03 19:33N 37°40' W 000°23'1616.0
2015-May-03 18:33N 37°29' W 000°37'1616.1
2015-May-03 17:33N 37°18' W 000°52'1616.1
2015-May-03 16:33N 37°07' W 001°08'1616.2
2015-May-03 15:32N 36°56' W 001°23'1616.0
2015-May-03 14:33N 36°46' W 001°38'3716.0
2015-May-03 12:14N 36°22' W 002°13'1116.1
2015-May-03 11:33N 36°21' W 002°27'1616.3
2015-May-03 10:33N 36°18' W 002°47'3916.1
2015-May-03 08:09N 36°12' W 003°34'7716.7
2015-May-03 03:32N 36°00' W 005°09'14716.3
2015-May-02 18:32N 36°16' W 008°09'1616.3
2015-May-02 17:33N 36°20' W 008°29'1616.0
2015-May-02 16:33N 36°24' W 008°48'1615.6
2015-May-02 15:32N 36°28' W 009°07'1515.3
2015-May-02 14:33N 36°33' W 009°25'1615.7
2015-May-02 13:33N 36°45' W 009°37'1616.3
2015-May-02 12:33N 37°01' W 009°42'1616.5
2015-May-02 11:34N 37°17' W 009°47'1616.4
2015-May-02 10:33N 37°33' W 009°51'1616.3
2015-May-02 09:33N 37°49' W 009°56'1616.2
2015-May-02 08:33N 38°05' W 010°01'1616.0
2015-May-02 07:33N 38°20' W 010°06'1616.1
2015-May-02 06:33N 38°36' W 010°11'1615.8
2015-May-02 05:33N 38°52' W 010°12'1615.9
2015-May-02 04:33N 39°08' W 010°12'1615.6
2015-May-02 03:33N 39°23' W 010°12'1615.6
2015-May-02 02:32N 39°39' W 010°12'68514.2
2015-Apr-30 02:23N 49°55' W 003°09'1315.0
2015-Apr-30 01:33N 50°01' W 002°51'5316.7
2015-Apr-29 22:23N 50°14' W 001°32'1716.1
2015-Apr-29 21:20N 50°19' W 001°07'1215.2
2015-Apr-29 20:33N 50°22' W 000°48'2913.9
2015-Apr-29 18:29N 50°30' W 000°05'  
Track history (hours):
 
Tides and Currents Weather Stations Pressure Air Temp Water Temp Dewpoint Dewpoint Depression Visibility Wind Speed Wind Dir Waves Ship Positions

Rickmers Dalian

Last reported at 2015-May-09 18:21 UTC. Time now 2015-May-22 23:40 UTC.
Position N 31°22' E 032°21'.
Warning: this ship's position is 13 days out of date.

Length 193 m; beam 27.8 m; draft 11.2 m.

Type: Ship. MMSI: 538090156.

Date/timePositionNaut miles runAvg speedWind from/ knotsBaromVisibWave heightAir tempDewpointWater temp
2015-May-09 18:21N 31°22' E 032°21'76915.7
2015-May-07 17:27N 36°51' E 018°22'1617.3
2015-May-07 16:33N 36°58' E 018°04'3617.1
2015-May-07 14:27N 37°13' E 017°23'1516.9
2015-May-07 13:33N 37°20' E 017°06'1716.8
2015-May-07 12:33N 37°27' E 016°47'1716.8
2015-May-07 11:33N 37°34' E 016°28'5216.2
2015-May-07 08:21N 38°03' E 015°33'3813.3
2015-May-07 05:32N 38°38' E 015°16'9017.0
2015-May-07 00:12N 39°39' E 013°51'1116.8
2015-May-06 23:33N 39°47' E 013°40'1716.6
2015-May-06 22:33N 39°58' E 013°25'4116.9
2015-May-06 20:10N 40°25' E 012°45'1116.9
2015-May-06 19:31N 40°33' E 012°35'1617.0
2015-May-06 18:33N 40°44' E 012°19'1716.8
2015-May-06 17:33N 40°55' E 012°03'1717.2
2015-May-06 16:33N 41°07' E 011°46'8416.7
2015-May-06 11:33N 42°03' E 010°23'1716.6
2015-May-06 10:33N 42°14' E 010°07'1616.1
2015-May-06 09:33N 42°28' E 009°55'1716.6
2015-May-06 08:31N 42°44' E 009°47'1816.7
2015-May-06 07:28N 43°01' E 009°39'1615.7
2015-May-06 06:27N 43°15' E 009°31'1415.9
2015-May-06 05:33N 43°29' E 009°24'1615.6
2015-May-06 04:33N 43°43' E 009°17'1515.0
2015-May-06 03:33N 43°58' E 009°10'1515.4
2015-May-06 02:33N 44°12' E 009°02'1313.1
2015-May-06 01:33N 44°24' E 008°55'1 1.2
2015-May-06 00:31N 44°24' E 008°53'0 0.0
2015-May-05 23:31N 44°24' E 008°53'0 0.0
2015-May-05 22:28N 44°24' E 008°53'0 0.0
2015-May-05 21:28N 44°24' E 008°53'0 0.0
2015-May-05 20:28N 44°24' E 008°53'0 0.0
2015-May-05 19:31N 44°24' E 008°53'0 0.0
2015-May-05 18:31N 44°24' E 008°53'0 0.0
2015-May-05 17:31N 44°24' E 008°53'0 0.0
2015-May-05 16:28N 44°24' E 008°53'0 0.0
2015-May-05 15:22N 44°24' E 008°53'0 0.0
2015-May-05 14:28N 44°24' E 008°53'0 0.0
2015-May-05 13:28N 44°24' E 008°53'0 0.0
2015-May-05 12:31N 44°24' E 008°53'0 0.0
2015-May-05 11:31N 44°24' E 008°53'0 0.0
2015-May-05 10:22N 44°24' E 008°53'0 0.3
2015-May-05 09:33N 44°24' E 008°53'6 5.6
2015-May-05 08:33N 44°19' E 008°57'1515.5
2015-May-05 07:33N 44°08' E 008°42'1515.3
2015-May-05 06:33N 43°57' E 008°27'1614.9
2015-May-05 05:30N 43°46' E 008°12'3015.5
2015-May-05 03:32N 43°25' E 007°42'8014.7
2015-May-04 22:04N 42°32' E 006°19'714.3
2015-May-04 21:33N 42°27' E 006°12'1515.0
2015-May-04 20:33N 42°17' E 005°57'1515.3
2015-May-04 19:34N 42°07' E 005°41'1515.2
2015-May-04 18:33N 41°57' E 005°26'1715.0
2015-May-04 17:27N 41°46' E 005°09'3015.7
2015-May-04 15:32N 41°26' E 004°39'5416.4
2015-May-04 12:15N 40°51' E 003°45'1115.8
2015-May-04 11:32N 40°43' E 003°34'1515.6
2015-May-04 10:33N 40°33' E 003°19'1615.6
2015-May-04 09:33N 40°23' E 003°03'1616.3
2015-May-04 08:33N 40°12' E 002°47'1616.6
2015-May-04 07:33N 40°01' E 002°31'1716.5
2015-May-04 06:33N 39°51' E 002°15'1616.3
2015-May-04 05:33N 39°40' E 001°59'1716.7
2015-May-04 04:33N 39°29' E 001°42'1616.2
2015-May-04 03:33N 39°18' E 001°27'1616.3
2015-May-04 02:33N 39°07' E 001°11'3416.4
2015-May-04 00:27N 38°42' E 000°41'3116.5
2015-May-03 22:33N 38°17' E 000°16'1616.1
2015-May-03 21:33N 38°05' E 000°03'1616.1
2015-May-03 20:33N 37°53' W 000°10'1616.3
2015-May-03 19:33N 37°40' W 000°23'1616.0
2015-May-03 18:33N 37°29' W 000°37'1616.1
2015-May-03 17:33N 37°18' W 000°52'1616.1
2015-May-03 16:33N 37°07' W 001°08'1616.2
2015-May-03 15:32N 36°56' W 001°23'1616.0
2015-May-03 14:33N 36°46' W 001°38'3716.0
2015-May-03 12:14N 36°22' W 002°13'1116.1
2015-May-03 11:33N 36°21' W 002°27'1616.3
2015-May-03 10:33N 36°18' W 002°47'3916.1
2015-May-03 08:09N 36°12' W 003°34'7716.7
2015-May-03 03:32N 36°00' W 005°09'14716.3
2015-May-02 18:32N 36°16' W 008°09'1616.3
2015-May-02 17:33N 36°20' W 008°29'1616.0
2015-May-02 16:33N 36°24' W 008°48'1615.6
2015-May-02 15:32N 36°28' W 009°07'1515.3
2015-May-02 14:33N 36°33' W 009°25'1615.7
2015-May-02 13:33N 36°45' W 009°37'1616.3
2015-May-02 12:33N 37°01' W 009°42'1616.5
2015-May-02 11:34N 37°17' W 009°47'1616.4
2015-May-02 10:33N 37°33' W 009°51'1616.3
2015-May-02 09:33N 37°49' W 009°56'1616.2
2015-May-02 08:33N 38°05' W 010°01'1616.0
2015-May-02 07:33N 38°20' W 010°06'1616.1
2015-May-02 06:33N 38°36' W 010°11'1615.8
2015-May-02 05:33N 38°52' W 010°12'1615.9
2015-May-02 04:33N 39°08' W 010°12'1615.6
2015-May-02 03:33N 39°23' W 010°12'1615.6
2015-May-02 02:32N 39°39' W 010°12'68514.2
2015-Apr-30 02:23N 49°55' W 003°09'1315.0
2015-Apr-30 01:33N 50°01' W 002°51'5316.7
2015-Apr-29 22:23N 50°14' W 001°32'1716.1
2015-Apr-29 21:20N 50°19' W 001°07'1215.2
2015-Apr-29 20:33N 50°22' W 000°48'2913.9
2015-Apr-29 18:29N 50°30' W 000°05'  

Dump ship's entire track history